Back to catalog

FENGYUN 1C DEB

AliveSSO
NORAD 38827·DEBRIS·🇨🇳 China

Launched May 10, 1999 from Taiyuan Satellite Launch Center

Loading…

Next Passes (next 24 hours)

TLE

AgingSource: Space-Track

Epoch: Sep 3, 2026, 06:48 UTC

1 38827U 99025EVT 26246.28373734  .00000888  00000-0  26006-3 0  9991
2 38827  98.3696 266.0266 0212491 245.0207 112.8773 14.34190708648507

Track FENGYUN 1C DEB in real time with AllMySat

Download on the App Store